| time (UTC) | temp F | wind direction | speed MPH | gust MPH | rain 1hr in | rain 24hr in | rain mn in | humidity % | barometer mb |
| 20260502221024 | 48 | 295 | 3.0 | 8.0 | 0.00 | 0.00 | 0.00 | 47 | 1014.8 |
| 20260502220518 | 49 | 292 | 3.0 | 8.0 | 0.00 | 0.00 | 0.00 | 45 | 1014.7 |
| 20260502220233 | 49 | 278 | 3.0 | 6.0 | 0.00 | 0.00 | 0.00 | 46 | 1014.6 |
| 20260502215507 | 49 | 285 | 4.0 | 9.0 | 0.00 | 0.00 | 0.00 | 47 | 1014.7 |
| 20260502215001 | 48 | 270 | 4.0 | 9.0 | 0.00 | 0.00 | 0.00 | 47 | 1014.6 |
| 20260502214710 | 48 | 299 | 3.0 | 7.0 | 0.00 | 0.00 | 0.00 | 47 | 1014.7 |
| 20260502213948 | 48 | 244 | 3.0 | 7.0 | 0.00 | 0.00 | 0.00 | 47 | 1014.8 |
| 20260502213702 | 48 | 257 | 4.0 | 9.0 | 0.00 | 0.00 | 0.00 | 46 | 1014.7 |
| 20260502212937 | 48 | 273 | 5.0 | 11.0 | 0.00 | 0.00 | 0.00 | 46 | 1014.7 |
| 20260502212430 | 48 | 292 | 4.0 | 11.0 | 0.00 | 0.00 | 0.00 | 45 | 1014.7 |
| 20260502211920 | 49 | 269 | 4.0 | 8.0 | 0.00 | 0.00 | 0.00 | 47 | 1014.7 |
| 20260502211419 | 49 | 215 | 4.0 | 10.0 | 0.00 | 0.00 | 0.00 | 44 | 1014.7 |
| 20260502210913 | 49 | 304 | 4.0 | 10.0 | 0.00 | 0.00 | 0.00 | 44 | 1014.8 |
| 20260502210406 | 49 | 263 | 4.0 | 8.0 | 0.00 | 0.00 | 0.00 | 45 | 1014.9 |
| 20260502205900 | 48 | 279 | 6.0 | 14.0 | 0.00 | 0.00 | 0.00 | 46 | 1014.9 |
| 20260502205355 | 48 | 289 | 5.0 | 14.0 | 0.00 | 0.00 | 0.00 | 45 | 1015.0 |
| 20260502204848 | 48 | 180 | 4.0 | 11.0 | 0.00 | 0.00 | 0.00 | 47 | 1015.0 |
| 20260502204559 | 48 | 296 | 5.0 | 11.0 | 0.00 | 0.00 | 0.00 | 45 | 1015.0 |
| 20260502203836 | 48 | 277 | 5.0 | 9.0 | 0.00 | 0.00 | 0.00 | 46 | 1015.0 |
| 20260502203331 | 48 | 271 | 5.0 | 11.0 | 0.00 | 0.00 | 0.00 | 45 | 1015.1 |
| 20260502202824 | 48 | 288 | 5.0 | 11.0 | 0.00 | 0.00 | 0.00 | 45 | 1015.1 |
| 20260502202541 | 48 | 229 | 4.0 | 10.0 | 0.00 | 0.00 | 0.00 | 45 | 1015.1 |
| 20260502201808 | 48 | 230 | 5.0 | 10.0 | 0.00 | 0.00 | 0.00 | 45 | 1015.1 |
| 20260502201306 | 48 | 275 | 4.0 | 14.0 | 0.00 | 0.00 | 0.00 | 44 | 1015.2 |
| 20260502200800 | 48 | 262 | 3.0 | 14.0 | 0.00 | 0.00 | 0.00 | 45 | 1015.3 |
| 20260502200255 | 48 | 275 | 4.0 | 9.0 | 0.00 | 0.00 | 0.00 | 46 | 1015.3 |
| 20260502195748 | 48 | 251 | 3.0 | 8.0 | 0.00 | 0.00 | 0.00 | 47 | 1015.3 |
| 20260502195238 | 48 | 281 | 3.0 | 10.0 | 0.00 | 0.00 | 0.00 | 45 | 1015.3 |
| 20260502194737 | 47 | 300 | 4.0 | 10.0 | 0.00 | 0.00 | 0.00 | 45 | 1015.4 |
| 20260502194230 | 48 | 242 | 5.0 | 10.0 | 0.00 | 0.00 | 0.00 | 46 | 1015.4 |
| 20260502193724 | 48 | 267 | 4.0 | 10.0 | 0.00 | 0.00 | 0.00 | 45 | 1015.5 |
| 20260502193713 | 48 | 284 | 4.0 | 8.0 | 0.00 | 0.00 | 0.00 | 44 | 1015.5 |
| 20260502192713 | 48 | 316 | 5.0 | 9.0 | 0.00 | 0.00 | 0.00 | 44 | 1015.6 |
| 20260502192206 | 48 | 300 | 4.0 | 9.0 | 0.00 | 0.00 | 0.00 | 43 | 1015.6 |
| 20260502191656 | 48 | 271 | 3.0 | 10.0 | 0.00 | 0.00 | 0.00 | 43 | 1015.6 |
| 20260502191154 | 48 | 267 | 4.0 | 10.0 | 0.00 | 0.00 | 0.00 | 44 | 1015.7 |
| 20260502190649 | 48 | 297 | 4.0 | 10.0 | 0.00 | 0.00 | 0.00 | 43 | 1015.8 |
| 20260502190409 | 48 | 268 | 4.0 | 12.0 | 0.00 | 0.00 | 0.00 | 45 | 1015.8 |
| 20260502185636 | 48 | 304 | 3.0 | 12.0 | 0.00 | 0.00 | 0.00 | 43 | 1015.7 |
| 20260502185127 | 48 | 355 | 4.0 | 8.0 | 0.00 | 0.00 | 0.00 | 43 | 1015.8 |
| 20260502184625 | 48 | 174 | 4.0 | 8.0 | 0.00 | 0.00 | 0.00 | 43 | 1015.7 |
| 20260502184119 | 48 | 198 | 5.0 | 9.0 | 0.00 | 0.00 | 0.00 | 45 | 1015.8 |
| 20260502183612 | 48 | 251 | 5.0 | 10.0 | 0.00 | 0.00 | 0.00 | 44 | 1016.0 |
| 20260502183326 | 48 | 336 | 4.0 | 11.0 | 0.00 | 0.00 | 0.00 | 43 | 1015.8 |
| 20260502182600 | 48 | 288 | 6.0 | 13.0 | 0.00 | 0.00 | 0.00 | 43 | 1016.0 |
| 20260502182055 | 48 | 333 | 6.0 | 13.0 | 0.00 | 0.00 | 0.00 | 43 | 1016.1 |
| 20260502181544 | 48 | 254 | 4.0 | 13.0 | 0.00 | 0.00 | 0.00 | 45 | 1016.0 |
| 20260502181303 | 48 | 233 | 4.0 | 11.0 | 0.00 | 0.00 | 0.00 | 43 | 1016.0 |
| 20260502180754 | 47 | 298 | 5.0 | 12.0 | 0.00 | 0.00 | 0.00 | 43 | 1016.1 |
| 20260502170424 | 46 | 289 | 4.0 | 11.0 | 0.00 | 0.00 | 0.00 | 46 | 1016.6 |
| 20260502163855 | 46 | 284 | 4.0 | 10.0 | 0.00 | 0.00 | 0.00 | 47 | 1016.8 |
| 20260502163349 | 46 | 290 | 3.0 | 10.0 | 0.00 | 0.00 | 0.00 | 48 | 1016.8 |
| 20260502162842 | 46 | 238 | 3.0 | 7.0 | 0.00 | 0.00 | 0.00 | 47 | 1016.7 |
| 20260502162337 | 45 | 309 | 4.0 | 11.0 | 0.00 | 0.00 | 0.00 | 50 | 1016.7 |
| 20260502161830 | 45 | 238 | 5.0 | 11.0 | 0.00 | 0.00 | 0.00 | 49 | 1016.7 |
| 20260502161324 | 46 | 241 | 5.0 | 11.0 | 0.00 | 0.00 | 0.00 | 49 | 1016.7 |
| 20260502160824 | 46 | 290 | 5.0 | 11.0 | 0.00 | 0.00 | 0.00 | 48 | 1016.8 |
| 20260502160324 | 46 | 321 | 5.0 | 11.0 | 0.00 | 0.00 | 0.00 | 49 | 1016.7 |
| 20260502152320 | 47 | 263 | 4.0 | 8.0 | 0.00 | 0.00 | 0.00 | 48 | 1016.6 |
| 20260502152040 | 46 | 220 | 4.0 | 8.0 | 0.00 | 0.00 | 0.00 | 51 | 1016.6 |
| 20260502151320 | 45 | 39 | 4.0 | 13.0 | 0.00 | 0.00 | 0.00 | 51 | 1016.7 |
| 20260502150818 | 44 | 288 | 4.0 | 13.0 | 0.00 | 0.00 | 0.00 | 50 | 1016.7 |
| 20260502150809 | 44 | 73 | 4.0 | 8.0 | 0.00 | 0.00 | 0.00 | 52 | 1016.6 |
| 20260502130744 | 42 | 347 | 3.0 | 9.0 | 0.00 | 0.00 | 0.00 | 65 | 1016.8 |
| 20260502130238 | 42 | 355 | 3.0 | 8.0 | 0.00 | 0.00 | 0.00 | 66 | 1016.8 |
| 20260502123723 | 41 | 252 | 3.0 | 9.0 | 0.00 | 0.00 | 0.00 | 69 | 1016.6 |
| 20260502123222 | 40 | 326 | 3.0 | 6.0 | 0.00 | 0.00 | 0.00 | 69 | 1016.6 |
| 20260502122722 | 40 | 330 | 3.0 | 7.0 | 0.00 | 0.00 | 0.00 | 70 | 1016.6 |
| 20260502122222 | 40 | 298 | 3.0 | 7.0 | 0.00 | 0.00 | 0.00 | 71 | 1016.6 |
| 20260502121720 | 39 | 300 | 3.0 | 7.0 | 0.00 | 0.00 | 0.00 | 71 | 1016.6 |
| 20260502121221 | 39 | 309 | 2.0 | 7.0 | 0.00 | 0.00 | 0.00 | 72 | 1016.7 |
| 20260502120721 | 39 | 36 | 2.0 | 5.0 | 0.00 | 0.00 | 0.00 | 73 | 1016.6 |
| 20260502120222 | 38 | 304 | 3.0 | 8.0 | 0.00 | 0.00 | 0.00 | 73 | 1016.5 |
| 20260502115723 | 38 | 244 | 3.0 | 8.0 | 0.00 | 0.00 | 0.00 | 74 | 1016.5 |
| 20260502115216 | 38 | 30 | 4.0 | 7.0 | 0.00 | 0.00 | 0.00 | 75 | 1016.5 |
| 20260502114705 | 37 | 302 | 2.0 | 7.0 | 0.00 | 0.00 | 0.00 | 75 | 1016.5 |
| 20260502114204 | 37 | 312 | 2.0 | 8.0 | 0.00 | 0.00 | 0.00 | 77 | 1016.5 |
| 20260502113706 | 37 | 40 | 2.0 | 8.0 | 0.00 | 0.00 | 0.00 | 77 | 1016.4 |
| 20260502113205 | 36 | 11 | 2.0 | 7.0 | 0.00 | 0.00 | 0.00 | 79 | 1016.3 |
| 20260502112704 | 36 | 337 | 1.0 | 7.0 | 0.00 | 0.00 | 0.00 | 80 | 1016.3 |
| 20260502112204 | 35 | 292 | 1.0 | 5.0 | 0.00 | 0.00 | 0.00 | 80 | 1016.3 |
| 20260502111704 | 35 | 305 | 1.0 | 5.0 | 0.00 | 0.00 | 0.00 | 81 | 1016.3 |
| 20260502111204 | 35 | 278 | 1.0 | 3.0 | 0.00 | 0.00 | 0.00 | 82 | 1016.2 |
| 20260502110705 | 34 | 347 | 1.0 | 5.0 | 0.00 | 0.00 | 0.00 | 83 | 1016.1 |
| 20260502110159 | 34 | 336 | 1.0 | 5.0 | 0.00 | 0.00 | 0.00 | 83 | 1016.1 |
| 20260502105648 | 34 | 325 | 1.0 | 4.0 | 0.00 | 0.00 | 0.00 | 84 | 1016.1 |
| 20260502105148 | 34 | 312 | 1.0 | 3.0 | 0.00 | 0.00 | 0.00 | 84 | 1016.1 |
| 20260502104649 | 34 | 312 | 1.0 | 3.0 | 0.00 | 0.00 | 0.00 | 85 | 1016.0 |
| 20260502104148 | 34 | 308 | 1.0 | 4.0 | 0.00 | 0.00 | 0.00 | 85 | 1016.0 |
| 20260502103648 | 34 | 268 | 1.0 | 4.0 | 0.00 | 0.00 | 0.00 | 86 | 1016.0 |
| 20260502103151 | 34 | 290 | 1.0 | 3.0 | 0.00 | 0.00 | 0.00 | 87 | 1016.1 |
| 20260502102651 | 34 | 320 | 1.0 | 3.0 | 0.00 | 0.00 | 0.00 | 87 | 1016.0 |
| 20260502102148 | 34 | 288 | 1.0 | 3.0 | 0.00 | 0.00 | 0.00 | 87 | 1016.0 |
| 20260502101648 | 34 | 310 | 1.0 | 3.0 | 0.00 | 0.00 | 0.00 | 87 | 1015.8 |
| 20260502101142 | 35 | 262 | 1.0 | 3.0 | 0.00 | 0.00 | 0.00 | 88 | 1016.0 |
| 20260502100632 | 35 | 286 | 1.0 | 3.0 | 0.00 | 0.00 | 0.00 | 88 | 1015.8 |
| 20260502100624 | 35 | 298 | 1.0 | 4.0 | 0.00 | 0.00 | 0.00 | 88 | 1015.8 |
| 20260502091341 | 37 | 28 | 0.0 | 3.0 | 0.00 | 0.00 | 0.00 | 85 | 1015.6 |
| 20260502090616 | 37 | 76 | 0.0 | 2.0 | 0.00 | 0.00 | 0.00 | 85 | 1015.5 |
| 20260502090116 | 37 | 76 | 1.0 | 2.0 | 0.00 | 0.00 | 0.00 | 85 | 1015.5 |
| 20260502071044 | 39 | 55 | 0.0 | 1.0 | 0.00 | 0.00 | 0.00 | 82 | 1015.1 |
| 20260502070544 | 39 | 55 | 0.0 | 2.0 | 0.00 | 0.00 | 0.00 | 82 | 1015.2 |
| 20260502070044 | 39 | 55 | 0.0 | 2.0 | 0.00 | 0.00 | 0.00 | 81 | 1015.2 |
| 20260502065544 | 39 | 55 | 0.0 | 1.0 | 0.00 | 0.00 | 0.00 | 81 | 1015.2 |
| 20260502065038 | 39 | 55 | 1.0 | 3.0 | 0.00 | 0.00 | 0.00 | 81 | 1015.3 |
| 20260502064528 | 39 | 55 | 1.0 | 3.0 | 0.00 | 0.00 | 0.00 | 81 | 1015.3 |
| 20260502064245 | 39 | 63 | 1.0 | 3.0 | 0.00 | 0.00 | 0.00 | 81 | 1015.4 |
| 20260502063527 | 39 | 63 | 2.0 | 3.0 | 0.00 | 0.00 | 0.00 | 80 | 1015.4 |
| 20260502063028 | 39 | 63 | 2.0 | 3.0 | 0.00 | 0.00 | 0.00 | 80 | 1015.4 |
| 20260502062528 | 39 | 40 | 2.0 | 4.0 | 0.00 | 0.00 | 0.00 | 80 | 1015.4 |
| 20260502062028 | 39 | 32 | 2.0 | 4.0 | 0.00 | 0.00 | 0.00 | 80 | 1015.5 |
| 20260502061748 | 39 | 68 | 2.0 | 5.0 | 0.00 | 0.00 | 0.00 | 80 | 1015.6 |
| 20260502061248 | 39 | 89 | 2.0 | 5.0 | 0.00 | 0.00 | 0.00 | 80 | 1015.5 |
| 20260502060530 | 40 | 51 | 2.0 | 4.0 | 0.00 | 0.00 | 0.00 | 80 | 1015.6 |
| 20260502060249 | 40 | 57 | 2.0 | 4.0 | 0.00 | 0.00 | 0.00 | 79 | 1015.6 |
| 20260502055746 | 40 | 75 | 2.0 | 5.0 | 0.00 | 0.00 | 0.00 | 79 | 1015.6 |
| 20260502055018 | 40 | 72 | 2.0 | 5.0 | 0.00 | 0.00 | 0.00 | 79 | 1015.6 |
| 20260502054738 | 40 | 53 | 2.0 | 5.0 | 0.00 | 0.00 | 0.00 | 78 | 1015.7 |
| 20260502054016 | 40 | 59 | 2.0 | 7.0 | 0.00 | 0.00 | 0.00 | 78 | 1015.7 |
| 20260502053514 | 40 | 97 | 3.0 | 7.0 | 0.00 | 0.00 | 0.00 | 78 | 1015.6 |
| 20260502053011 | 40 | 55 | 3.0 | 5.0 | 0.00 | 0.00 | 0.00 | 78 | 1015.6 |
| 20260502052512 | 40 | 40 | 2.0 | 5.0 | 0.00 | 0.00 | 0.00 | 77 | 1015.7 |
| 20260502052010 | 40 | 66 | 2.0 | 5.0 | 0.00 | 0.00 | 0.00 | 77 | 1015.7 |
| 20260502051510 | 40 | 75 | 3.0 | 8.0 | 0.00 | 0.00 | 0.00 | 76 | 1015.7 |
| 20260502051238 | 40 | 83 | 4.0 | 9.0 | 0.00 | 0.00 | 0.00 | 76 | 1015.7 |
| 20260502050510 | 40 | 76 | 4.0 | 9.0 | 0.00 | 0.00 | 0.00 | 76 | 1015.6 |
| 20260502050011 | 41 | 81 | 3.0 | 8.0 | 0.00 | 0.00 | 0.00 | 75 | 1015.6 |
| 20260502045506 | 41 | 62 | 3.0 | 8.0 | 0.00 | 0.00 | 0.00 | 75 | 1015.6 |
| 20260502045000 | 41 | 39 | 3.0 | 8.0 | 0.00 | 0.00 | 0.00 | 74 | 1015.5 |
| 20260502044455 | 41 | 35 | 3.0 | 8.0 | 0.00 | 0.00 | 0.00 | 74 | 1015.5 |
| 20260502043949 | 41 | 54 | 4.0 | 9.0 | 0.00 | 0.00 | 0.00 | 73 | 1015.5 |
| 20260502043436 | 42 | 65 | 3.0 | 9.0 | 0.00 | 0.00 | 0.00 | 73 | 1015.4 |
| 20260502043154 | 42 | 57 | 2.0 | 9.0 | 0.00 | 0.00 | 0.00 | 74 | 1015.3 |
| 20260502042425 | 42 | 35 | 2.0 | 5.0 | 0.00 | 0.00 | 0.00 | 74 | 1015.2 |
| 20260502042144 | 42 | 340 | 2.0 | 5.0 | 0.00 | 0.00 | 0.00 | 74 | 1015.2 |
| 20260502041418 | 41 | 283 | 1.0 | 4.0 | 0.00 | 0.00 | 0.00 | 75 | 1015.1 |
| 20260502040914 | 41 | 292 | 1.0 | 2.0 | 0.00 | 0.00 | 0.00 | 75 | 1015.1 |
| 20260502040406 | 41 | 292 | 0.0 | 1.0 | 0.00 | 0.00 | 0.00 | 75 | 1015.0 |
| 20260502040121 | 41 | 292 | 0.0 | 0.0 | 0.00 | 0.00 | 0.00 | 75 | 1015.0 |
| 20260502035353 | 41 | 292 | 0.0 | 0.0 | 0.00 | 0.00 | 0.00 | 74 | 1015.0 |
| 20260502034849 | 41 | 292 | 0.0 | 0.0 | 0.00 | 0.00 | 0.00 | 74 | 1014.9 |
| 20260502034341 | 42 | 292 | 0.0 | 0.0 | 0.00 | 0.00 | 0.00 | 73 | 1014.9 |
| 20260502033832 | 42 | 292 | 0.0 | 0.0 | 0.00 | 0.00 | 0.00 | 73 | 1014.8 |
| 20260502033329 | 42 | 292 | 0.0 | 1.0 | 0.00 | 0.00 | 0.00 | 72 | 1014.8 |
| 20260502032823 | 42 | 292 | 0.0 | 2.0 | 0.00 | 0.00 | 0.00 | 72 | 1014.8 |
| 20260502032317 | 42 | 292 | 0.0 | 3.0 | 0.00 | 0.00 | 0.00 | 71 | 1014.8 |
| 20260502031810 | 42 | 292 | 0.0 | 3.0 | 0.00 | 0.00 | 0.00 | 71 | 1014.8 |
| 20260502031305 | 42 | 330 | 1.0 | 5.0 | 0.00 | 0.00 | 0.00 | 71 | 1014.9 |
| 20260502030759 | 42 | 327 | 2.0 | 5.0 | 0.00 | 0.00 | 0.00 | 71 | 1014.8 |
| 20260502030248 | 42 | 279 | 1.0 | 3.0 | 0.00 | 0.00 | 0.00 | 71 | 1014.8 |
| 20260502025747 | 42 | 313 | 1.0 | 3.0 | 0.00 | 0.00 | 0.00 | 71 | 1014.8 |
| 20260502025241 | 42 | 309 | 2.0 | 3.0 | 0.00 | 0.00 | 0.00 | 71 | 1014.8 |
| 20260502024735 | 42 | 326 | 2.0 | 4.0 | 0.00 | 0.00 | 0.00 | 71 | 1014.8 |
| 20260502024229 | 42 | 284 | 2.0 | 6.0 | 0.00 | 0.00 | 0.00 | 70 | 1014.8 |
| 20260502023721 | 43 | 273 | 2.0 | 6.0 | 0.00 | 0.00 | 0.00 | 70 | 1014.8 |
| 20260502023217 | 43 | 309 | 2.0 | 6.0 | 0.00 | 0.00 | 0.00 | 70 | 1014.8 |
| 20260502022937 | 43 | 279 | 2.0 | 6.0 | 0.00 | 0.00 | 0.00 | 70 | 1014.8 |
| 20260502022204 | 43 | 302 | 3.0 | 7.0 | 0.00 | 0.00 | 0.00 | 70 | 1014.8 |
| 20260502021659 | 43 | 286 | 3.0 | 7.0 | 0.00 | 0.00 | 0.00 | 69 | 1014.8 |
| 20260502021636 | 43 | 257 | 3.0 | 8.0 | 0.00 | 0.00 | 0.00 | 69 | 1014.8 |
| 20260502020647 | 44 | 248 | 2.0 | 8.0 | 0.00 | 0.00 | 0.00 | 70 | 1014.7 |
| 20260502020136 | 44 | 298 | 2.0 | 5.0 | 0.00 | 0.00 | 0.00 | 70 | 1014.7 |
| 20260502015634 | 44 | 272 | 2.0 | 5.0 | 0.00 | 0.00 | 0.00 | 70 | 1014.6 |
| 20260502015129 | 44 | 277 | 3.0 | 7.0 | 0.00 | 0.00 | 0.00 | 69 | 1014.6 |
| 20260502014623 | 44 | 276 | 3.0 | 8.0 | 0.00 | 0.00 | 0.00 | 69 | 1014.6 |
| 20260502014339 | 44 | 301 | 3.0 | 8.0 | 0.00 | 0.00 | 0.00 | 69 | 1014.5 |
| 20260502014057 | 44 | 297 | 3.0 | 7.0 | 0.00 | 0.00 | 0.00 | 69 | 1014.5 |
| 20260502013328 | 44 | 288 | 2.0 | 7.0 | 0.00 | 0.00 | 0.00 | 68 | 1014.4 |
| 20260502012559 | 44 | 276 | 2.0 | 6.0 | 0.00 | 0.00 | 0.00 | 69 | 1014.4 |
| 20260502012052 | 44 | 262 | 2.0 | 5.0 | 0.00 | 0.00 | 0.00 | 69 | 1014.3 |
| 20260502011547 | 44 | 290 | 3.0 | 7.0 | 0.00 | 0.00 | 0.00 | 68 | 1014.3 |
| 20260502011516 | 44 | 255 | 3.0 | 7.0 | 0.00 | 0.00 | 0.00 | 68 | 1014.2 |
| 20260502010801 | 44 | 243 | 3.0 | 7.0 | 0.00 | 0.00 | 0.00 | 68 | 1014.2 |
| 20260502010024 | 44 | 282 | 3.0 | 7.0 | 0.00 | 0.00 | 0.00 | 69 | 1014.2 |
| 20260502005522 | 44 | 317 | 3.0 | 9.0 | 0.00 | 0.00 | 0.00 | 68 | 1014.1 |
| 20260502005505 | 44 | 287 | 2.0 | 9.0 | 0.00 | 0.00 | 0.00 | 68 | 1014.1 |
| 20260502004517 | 44 | 284 | 3.0 | 9.0 | 0.00 | 0.00 | 0.00 | 68 | 1014.0 |
| 20260502004005 | 44 | 321 | 3.0 | 9.0 | 0.00 | 0.00 | 0.00 | 68 | 1014.1 |
| 20260502003958 | 44 | 302 | 3.0 | 7.0 | 0.00 | 0.00 | 0.00 | 68 | 1014.1 |
| 20260502002953 | 44 | 281 | 4.0 | 9.0 | 0.00 | 0.00 | 0.00 | 67 | 1014.1 |
| 20260502002447 | 45 | 296 | 5.0 | 11.0 | 0.00 | 0.00 | 0.00 | 66 | 1014.1 |
| 20260502002158 | 45 | 287 | 4.0 | 11.0 | 0.00 | 0.00 | 0.00 | 67 | 1014.0 |
| 20260502001436 | 45 | 261 | 4.0 | 9.0 | 0.00 | 0.00 | 0.00 | 66 | 1014.0 |
| 20260502000924 | 45 | 242 | 5.0 | 10.0 | 0.00 | 0.00 | 0.00 | 66 | 1013.9 |
| 20260502000424 | 45 | 279 | 4.0 | 10.0 | 0.00 | 0.00 | 0.00 | 66 | 1013.9 |
| 20260501235912 | 45 | 285 | 4.0 | 10.0 | 0.00 | 0.00 | 0.00 | 65 | 1013.8 |
| 20260501235411 | 46 | 313 | 5.0 | 10.0 | 0.00 | 0.00 | 0.00 | 65 | 1013.8 |
| 20260501234904 | 46 | 267 | 4.0 | 9.0 | 0.00 | 0.00 | 0.00 | 64 | 1013.7 |
| 20260501234401 | 46 | 309 | 2.0 | 6.0 | 0.00 | 0.00 | 0.00 | 64 | 1013.6 |
| 20260501233852 | 46 | 316 | 3.0 | 6.0 | 0.00 | 0.00 | 0.00 | 63 | 1013.6 |
| 20260501233343 | 46 | 17 | 3.0 | 7.0 | 0.00 | 0.00 | 0.00 | 64 | 1013.5 |
| 20260501232840 | 46 | 305 | 4.0 | 9.0 | 0.00 | 0.00 | 0.00 | 63 | 1013.4 |
| 20260501232557 | 46 | 294 | 5.0 | 9.0 | 0.00 | 0.00 | 0.00 | 62 | 1013.5 |
| 20260501232054 | 46 | 306 | 5.0 | 10.0 | 0.00 | 0.00 | 0.00 | 62 | 1013.4 |
| 20260501231410 | 46 | 262 | 4.0 | 10.0 | 0.00 | 0.00 | 0.00 | 63 | 1013.4 |
| 20260501230311 | 46 | 5 | 5.0 | 9.0 | 0.00 | 0.00 | 0.00 | 62 | 1013.5 |
| 20260501225800 | 47 | 329 | 4.0 | 9.0 | 0.00 | 0.00 | 0.00 | 62 | 1013.4 |
| 20260501225259 | 47 | 294 | 4.0 | 9.0 | 0.00 | 0.00 | 0.00 | 62 | 1013.4 |
| 20260501224752 | 47 | 288 | 4.0 | 12.0 | 0.00 | 0.00 | 0.00 | 60 | 1013.4 |
| 20260501224508 | 47 | 255 | 4.0 | 12.0 | 0.00 | 0.00 | 0.00 | 60 | 1013.4 |
| 20260501223740 | 47 | 267 | 4.0 | 12.0 | 0.00 | 0.00 | 0.00 | 61 | 1013.4 |
| 20260501223230 | 48 | 302 | 4.0 | 11.0 | 0.00 | 0.00 | 0.00 | 60 | 1013.4 |
| 20260501222729 | 48 | 266 | 4.0 | 11.0 | 0.00 | 0.00 | 0.00 | 60 | 1013.4 |
| 20260501222222 | 48 | 296 | 3.0 | 8.0 | 0.00 | 0.00 | 0.00 | 60 | 1013.2 |
| 20260501221717 | 48 | 284 | 3.0 | 8.0 | 0.00 | 0.00 | 0.00 | 61 | 1013.2 |
| 20260501221210 | 48 | 290 | 3.0 | 8.0 | 0.00 | 0.00 | 0.00 | 62 | 1013.2 |